STARLINK-31976, 59887

Orbit data source: Space-Track

STARLINK-31976, 59887 is a payload satellite owned by SpaceX/Seattle (US) in LEO that was launched on Tue, 28 May 2024 UTC via an FALCON 9 launch vehicle from the Air Force Eastern Test Range (AFETR). Payload-class satellites include a variety of spacecraft equipped with specific instruments for various scientific and technological missions. These include communications satellites like Starlink; space stations such as the ISS; scientific satellites like the Hubble; Earth observation satellites from companies like Planet Labs, Umbra, and HawkEye 360; GPS; miniature CubeSats for education and research; and military/defense satellites.

Loading next visibility...
Identifier
59887, 2024-100C
Orbit
LEO
Country
Flag of USUS
Related business
Manufacturer
SpaceX/Seattle
Mission
Operational spacecraft
Bus & Motor
STARLINK V2M, Unknown motor
Mass
730 kg wet, ~700 kg dry
Launch date (UTC)
2024-05-28 (1 year ago)
Launch vehicle
FALCON 9
Launch site
Air Force Eastern Test Range (AFETR)
Object type
Payload
Rocket body
Debris
Shape & HBR
Unknown
Radar Cross Section
Large (>1 m²)

Expand to show TLE details & history
Last TLE update: 1 day ago

TLE from 1 day ago
0 STARLINK-31976
1 59887U 24100C   25259.64771330  .00000491  00000-0  27370-4 0  9995
2 59887  43.0006  32.2222 0001842 267.7442  92.3199 15.27575468 74499
Epoch: 2025-09-16T15:32Z
TLE epoch observation values (Epoch: 2025-09-16T15:32:42.429Z)
Latitude
0.00002°
Longitude
163.21042°
Altitude
482.89 km
Speed
7.626 km/s
True Right ascension
02h 08m 53s
True Declination
0° 00' 00"
Sunlit
Object was in full shadow at epoch
Visualization orbit readout
Latitude
Unknown
Longitude
Unknown
Altitude
Unknown
Speed
Unknown
Apparent Right ascension
Unknown
Apparent Declination
Unknown
Sunlit
N/A
Visualization observer readout
Local Sidereal Time
17:33:36
Azimuth
Unknown
Elevation
Unknown
Doppler factor
Unknown
Orbital elements
Apogee altitude
486.272 km
Perigee altitude
483.744 km
Semi-major axis
6,863.145 km
Eccentricity
0.00018
Inclination
43.0006°
RAAN
32.2222°
Arg. of periapsis
267.7442°
True anomaly
92.34099°
Mean anomaly
92.3199°
Eccentric anomaly
92.33045°
Mean motion
3.81732 °/min
Orbital period
94.31 mins
BSTAR
0.00002737
Loading maneuver chart data...
Computing Atmospheric mass density...
Loading historical data...
Loading historical data...
Loading historical data...
Loading historical data...
Loading historical data...
Loading historical data...
Loading historical data...

Documentation

Showing up to 5 results
|